User: anonymous   Login
Location: Unspecified
(0.0000°N, 0.0000°E)
Time: 23:58:42
(UTC+00:00)
Language:

GEESAT 2-07 - Orbit

View from above orbital plane
View from above orbital plane
View from above satellite
View from above satellite

Ground track
Ground track

The orbit is defined by the following mean orbital elements,

1 58911U          26145.34781565 +.00000000 +00000-0 +20839-3 0 00009
2 58911  50.0054 100.4993 0010686 331.5290  28.5063 14.83160468    05
Epoch (UTC): 25 May 2026 08:20:51
Eccentricity: 0.0010686
inclination: 50.0054°
perigee height: 612 km
apogee height: 627 km
right ascension of ascending node: 100.4993°
argument of perigee: 331.5290°
revolutions per day: 14.83160468
mean anomaly at epoch: 28.5063°

The dashed part of the orbit path shows where the satellite is in the earth's shadow,  

DLR